FW3241 Weather Reports


time (UTC)temp
C
wind
direction
speed
KPH
gust
KPH
rain 1hr
cm
rain 24hr
cm
rain mn
cm
humidity
%
barometer
mb
20260510191531 22 268 0.0 1.6 0.00 0.00 0.00 27 1018.2
20260510190029 22 268 0.0 3.2 0.00 0.00 0.00 28 1018.2
20260510184526 22 268 0.0 4.8 0.00 0.00 0.00 28 1018.3
20260510183024 22 268 0.0 3.2 0.00 0.00 0.00 29 1018.5
20260510181522 21 268 0.0 3.2 0.00 0.00 0.00 26 1018.5
20260510180018 21 268 0.0 6.4 0.00 0.00 0.00 30 1018.6
20260510174515 20 244 0.0 3.2 0.00 0.00 0.00 29 1018.7
20260510173014 19 244 0.0 3.2 0.00 0.00 0.00 35 1018.6
20260510171507 18 244 0.0 1.6 0.00 0.00 0.00 35 1018.8
20260510170004 17 333 0.0 3.2 0.00 0.00 0.00 35 1018.9
20260510164501 17 38 1.6 4.8 0.00 0.00 0.00 33 1018.9
20260510163122 17 30 0.0 3.2 0.00 0.00 0.00 36 1018.9
20260510161605 16 14 0.0 4.8 0.00 0.00 0.00 34 1019.1
20260510160106 16 27 0.0 4.8 0.00 0.00 0.00 38 1019.0
20260510154553 16 279 0.0 3.2 0.00 0.00 0.00 39 1019.0
20260510153055 15 276 0.0 6.4 0.00 0.00 0.00 45 1019.0
20260510151550 15 301 0.0 3.2 0.00 0.00 0.00 50 1018.9
20260510150045 14 277 0.0 1.6 0.00 0.00 0.00 51 1019.0
20260510144546 13 277 0.0 3.2 0.00 0.00 0.00 56 1019.0
20260510143049 13 277 0.0 1.6 0.00 0.00 0.00 56 1019.0
20260510141540 13 277 1.6 6.4 0.00 0.00 0.00 53 1019.0
20260510140032 13 272 0.0 4.8 0.00 0.00 0.00 51 1018.8
20260510134530 12 125 0.0 3.2 0.00 0.00 0.00 54 1018.9
20260510133033 12 113 0.0 1.6 0.00 0.00 0.00 57 1018.7
20260510131529 12 113 0.0 1.6 0.00 0.00 0.00 63 1018.8
20260510130022 11 113 0.0 0.0 0.00 0.00 0.00 63 1018.6
20260510124524 11 113 0.0 0.0 0.00 0.00 0.00 62 1018.4
20260510123019 11 113 0.0 0.0 0.00 0.00 0.00 59 1018.4
20260510121518 11 113 0.0 0.0 0.00 0.00 0.00 58 1018.1
20260510120017 11 113 0.0 0.0 0.00 0.00 0.00 59 1017.9
20260510114514 11 113 0.0 0.0 0.00 0.00 0.00 59 1017.7
20260510113014 11 113 0.0 0.0 0.00 0.00 0.00 60 1017.5
20260510111511 10 113 0.0 0.0 0.00 0.00 0.00 61 1017.3
20260510110014 10 113 0.0 0.0 0.00 0.00 0.00 62 1017.0
20260510104509 10 113 0.0 0.0 0.00 0.00 0.00 64 1016.7
20260510103006 10 113 0.0 0.0 0.00 0.00 0.00 64 1016.6
20260510101504 10 113 0.0 0.0 0.00 0.00 0.00 64 1016.4
20260510100002 10 113 0.0 0.0 0.00 0.00 0.00 65 1016.2
20260510094601 10 113 0.0 0.0 0.00 0.00 0.00 65 1016.2
20260510093109 10 113 0.0 0.0 0.00 0.00 0.00 64 1016.1
20260510091559 10 113 0.0 0.0 0.00 0.00 0.00 64 1016.0
20260510090056 10 113 0.0 0.0 0.00 0.00 0.00 66 1015.8
20260510084559 10 113 0.0 0.0 0.00 0.00 0.00 66 1015.6
20260510083055 10 113 0.0 0.0 0.00 0.00 0.00 67 1015.4
20260510081622 10 113 0.0 1.6 0.00 0.00 0.00 67 1015.5
20260510080056 10 113 0.0 3.2 0.00 0.00 0.00 66 1015.3
20260510074551 11 113 0.0 1.6 0.00 0.00 0.00 65 1015.1
20260510073058 11 113 0.0 1.6 0.00 0.00 0.00 64 1015.0
20260510071546 11 113 0.0 0.0 0.00 0.00 0.00 63 1014.8
20260510070045 11 113 0.0 0.0 0.00 0.00 0.00 62 1014.7
20260510064554 11 113 0.0 0.0 0.00 0.00 0.00 61 1014.7
20260510063046 11 113 0.0 0.0 0.00 0.00 0.00 60 1014.7
20260510061546 12 113 0.0 3.2 0.00 0.00 0.00 60 1014.8
20260510060047 12 113 0.0 0.0 0.00 0.00 0.00 60 1015.1
20260510054539 12 113 0.0 0.0 0.00 0.00 0.00 59 1015.4
20260510053043 12 113 0.0 0.0 0.00 0.00 0.00 60 1015.5
20260510051543 12 113 0.0 0.0 0.00 0.00 0.00 60 1015.7
20260510050036 12 113 0.0 3.2 0.00 0.00 0.00 60 1015.5
20260510044546 12 112 0.0 1.6 0.00 0.00 0.00 59 1015.5
20260510043042 12 112 0.0 0.0 0.00 0.00 0.00 60 1015.3
20260510041534 12 112 0.0 0.0 0.00 0.00 0.00 60 1015.2
20260510040039 12 112 0.0 3.2 0.00 0.00 0.00 60 1015.3
20260510034529 12 112 0.0 3.2 0.00 0.00 0.00 61 1015.5
20260510033047 12 112 0.0 0.0 0.00 0.00 0.00 62 1015.3
20260510031528 12 112 0.0 0.0 0.00 0.00 0.00 62 1015.6
20260510030032 12 112 0.0 0.0 0.00 0.00 0.00 61 1015.4
20260510024526 12 112 0.0 0.0 0.00 0.00 0.00 61 1015.2
20260510023026 12 112 0.0 0.0 0.00 0.00 0.00 60 1015.1
20260510021527 12 111 0.0 0.0 0.00 0.00 0.00 59 1015.3
20260510020027 12 111 0.0 1.6 0.00 0.00 0.00 59 1014.9
20260510014528 12 82 0.0 0.0 0.00 0.00 0.00 59 1014.6
20260510013024 12 82 0.0 1.6 0.00 0.00 0.00 60 1014.4
20260510011525 12 82 0.0 0.0 0.00 0.00 0.00 60 1014.2
20260510010027 13 82 0.0 0.0 0.00 0.00 0.00 59 1014.2
20260510004523 13 82 0.0 0.0 0.00 0.00 0.00 58 1013.9
20260510003024 13 82 0.0 0.0 0.00 0.00 0.00 58 1013.7
20260510001522 13 82 0.0 0.0 0.00 0.00 0.00 57 1013.6
20260510000021 13 82 0.0 3.2 0.00 0.00 0.00 57 1013.4
20260509234530 14 82 1.6 3.2 0.00 0.00 0.00 56 1013.1
20260509233021 14 88 1.6 3.2 0.00 0.00 0.00 57 1012.9
20260509231521 15 88 0.0 3.2 0.00 0.00 0.00 57 1012.7
20260509230022 15 88 1.6 3.2 0.00 0.00 0.00 56 1012.6
20260509224518 16 88 0.0 3.2 0.00 0.00 0.00 57 1012.6
20260509223017 16 88 0.0 3.2 0.00 0.00 0.00 56 1012.6
20260509221518 17 89 0.0 3.2 0.00 0.00 0.00 53 1012.5
20260509220017 17 89 0.0 1.6 0.00 0.00 0.00 52 1012.4
20260509214515 18 89 0.0 4.8 0.00 0.00 0.00 47 1012.3
20260509213015 18 220 0.0 4.8 0.00 0.00 0.00 39 1012.0
20260509211513 18 223 1.6 3.2 0.00 0.00 0.00 38 1011.8
20260509210018 18 235 0.0 4.8 0.00 0.00 0.00 42 1012.1
20260509204514 18 212 1.6 6.4 0.00 0.00 0.00 44 1012.0
20260509203016 18 238 3.2 8.0 0.00 0.00 0.00 42 1012.1
20260509201510 18 238 0.0 6.4 0.00 0.00 0.00 40 1011.8
20260509200011 19 202 0.0 4.8 0.00 0.00 0.00 42 1012.0
20260509194508 19 242 3.2 6.4 0.00 0.00 0.00 39 1012.0
20260509193008 19 248 3.2 8.0 0.00 0.00 0.00 41 1012.2